| time (UTC) | temp F | wind direction | speed MPH | gust MPH | rain 1hr in | rain 24hr in | rain mn in | humidity % | barometer mb |
| 20260507153009 | 54 | 250 | 11.0 | 17.0 | 0.00 | 0.00 | 0.00 | 79 | 1011.7 |
| 20260507151504 | 53 | 255 | 13.0 | 19.0 | 0.00 | 0.00 | 0.00 | 80 | 1011.7 |
| 20260507150002 | 52 | 242 | 11.0 | 19.0 | 0.00 | 0.00 | 0.00 | 84 | 1011.7 |
| 20260507144502 | 49 | 221 | 6.0 | 11.0 | 0.00 | 0.00 | 0.00 | 87 | 1011.8 |
| 20260507143058 | 49 | 231 | 6.0 | 9.0 | 0.00 | 0.00 | 0.00 | 85 | 1011.8 |
| 20260507141555 | 49 | 248 | 4.0 | 13.0 | 0.00 | 0.00 | 0.00 | 85 | 1011.8 |
| 20260507140053 | 50 | 215 | 6.0 | 11.0 | 0.00 | 0.00 | 0.00 | 86 | 1011.3 |
| 20260507134553 | 50 | 237 | 6.0 | 12.0 | 0.00 | 0.00 | 0.00 | 85 | 1011.4 |
| 20260507133051 | 50 | 243 | 7.0 | 11.0 | 0.00 | 0.00 | 0.00 | 84 | 1011.3 |
| 20260507131558 | 50 | 211 | 6.0 | 14.0 | 0.00 | 0.00 | 0.00 | 86 | 1011.0 |
| 20260507130103 | 48 | 243 | 4.0 | 9.0 | 0.00 | 0.00 | 0.00 | 90 | 1011.0 |
| 20260507124551 | 46 | 221 | 4.0 | 6.0 | 0.00 | 0.00 | 0.00 | 90 | 1011.0 |
| 20260507123043 | 45 | 207 | 2.0 | 4.0 | 0.00 | 0.00 | 0.00 | 88 | 1011.2 |
| 20260507121540 | 47 | 189 | 1.0 | 3.0 | 0.00 | 0.00 | 0.00 | 87 | 1011.2 |
| 20260507120041 | 49 | 234 | 3.0 | 6.0 | 0.00 | 0.00 | 0.00 | 87 | 1011.2 |
| 20260507114533 | 50 | 254 | 6.0 | 10.0 | 0.00 | 0.00 | 0.00 | 85 | 1011.2 |
| 20260507113031 | 51 | 248 | 8.0 | 16.0 | 0.00 | 0.00 | 0.00 | 84 | 1011.2 |
| 20260507111530 | 52 | 245 | 12.0 | 17.0 | 0.00 | 0.00 | 0.00 | 83 | 1011.0 |
| 20260507110027 | 51 | 246 | 10.0 | 14.0 | 0.00 | 0.00 | 0.00 | 85 | 1011.0 |
| 20260507104526 | 50 | 259 | 6.0 | 10.0 | 0.00 | 0.00 | 0.00 | 86 | 1011.0 |
| 20260507103024 | 51 | 276 | 7.0 | 11.0 | 0.00 | 0.00 | 0.00 | 85 | 1011.0 |
| 20260507101523 | 51 | 244 | 7.0 | 12.0 | 0.00 | 0.00 | 0.00 | 85 | 1011.0 |
| 20260507100030 | 51 | 265 | 8.0 | 11.0 | 0.00 | 0.00 | 0.00 | 84 | 1011.1 |
| 20260507094520 | 52 | 254 | 8.0 | 16.0 | 0.00 | 0.00 | 0.00 | 81 | 1011.2 |
| 20260507093018 | 52 | 254 | 9.0 | 17.0 | 0.00 | 0.00 | 0.00 | 81 | 1010.9 |
| 20260507091516 | 53 | 242 | 9.0 | 13.0 | 0.00 | 0.00 | 0.00 | 80 | 1011.0 |
| 20260507090020 | 53 | 244 | 9.0 | 13.0 | 0.00 | 0.00 | 0.00 | 78 | 1011.1 |
| 20260507084514 | 53 | 271 | 12.0 | 17.0 | 0.00 | 0.00 | 0.00 | 77 | 1011.0 |
| 20260507083009 | 52 | 236 | 5.0 | 10.0 | 0.00 | 0.00 | 0.00 | 79 | 1011.0 |
| 20260507081513 | 51 | 270 | 6.0 | 11.0 | 0.00 | 0.00 | 0.00 | 80 | 1011.1 |
| 20260507080008 | 51 | 244 | 4.0 | 8.0 | 0.00 | 0.00 | 0.00 | 79 | 1011.1 |
| 20260507074507 | 52 | 246 | 4.0 | 10.0 | 0.00 | 0.00 | 0.00 | 78 | 1011.1 |
| 20260507073001 | 52 | 267 | 7.0 | 10.0 | 0.00 | 0.00 | 0.00 | 78 | 1011.0 |
| 20260507071559 | 52 | 231 | 2.0 | 5.0 | 0.00 | 0.00 | 0.00 | 78 | 1010.9 |
| 20260507070054 | 53 | 248 | 3.0 | 8.0 | 0.00 | 0.00 | 0.00 | 76 | 1010.9 |
| 20260507064553 | 53 | 246 | 4.0 | 7.0 | 0.00 | 0.00 | 0.00 | 75 | 1010.8 |
| 20260507063051 | 53 | 239 | 6.0 | 11.0 | 0.00 | 0.00 | 0.00 | 74 | 1010.6 |
| 20260507061551 | 53 | 244 | 3.0 | 7.0 | 0.00 | 0.00 | 0.00 | 75 | 1010.6 |
| 20260507060050 | 53 | 243 | 4.0 | 7.0 | 0.00 | 0.00 | 0.00 | 75 | 1010.6 |
| 20260507054628 | 54 | 198 | 3.0 | 7.0 | 0.00 | 0.00 | 0.00 | 74 | 1010.6 |
| 20260507053053 | 55 | 246 | 1.0 | 4.0 | 0.00 | 0.00 | 0.00 | 71 | 1010.6 |
| 20260507051549 | 56 | 234 | 2.0 | 8.0 | 0.00 | 0.00 | 0.00 | 68 | 1010.5 |
| 20260507050054 | 58 | 262 | 8.0 | 14.0 | 0.00 | 0.00 | 0.00 | 65 | 1010.4 |
| 20260507044553 | 59 | 285 | 8.0 | 13.0 | 0.00 | 0.00 | 0.00 | 63 | 1010.4 |
| 20260507043048 | 59 | 264 | 7.0 | 13.0 | 0.00 | 0.00 | 0.00 | 63 | 1010.3 |
| 20260507041556 | 60 | 284 | 10.0 | 16.0 | 0.00 | 0.00 | 0.00 | 61 | 1010.1 |
| 20260507040047 | 61 | 267 | 8.0 | 14.0 | 0.00 | 0.00 | 0.00 | 61 | 1009.8 |
| 20260507034555 | 62 | 259 | 8.0 | 17.0 | 0.00 | 0.00 | 0.00 | 61 | 1009.5 |
| 20260507033052 | 63 | 261 | 13.0 | 21.0 | 0.00 | 0.00 | 0.00 | 59 | 1009.3 |
| 20260507031601 | 64 | 265 | 12.0 | 20.0 | 0.00 | 0.00 | 0.00 | 59 | 1009.0 |
| 20260507030052 | 65 | 274 | 10.0 | 16.0 | 0.00 | 0.00 | 0.00 | 58 | 1008.9 |
| 20260507024546 | 65 | 241 | 12.0 | 19.0 | 0.00 | 0.00 | 0.00 | 57 | 1008.6 |
| 20260507023044 | 66 | 278 | 8.0 | 17.0 | 0.00 | 0.00 | 0.00 | 55 | 1008.6 |
| 20260507021543 | 67 | 246 | 10.0 | 17.0 | 0.00 | 0.00 | 0.00 | 54 | 1008.7 |
| 20260507020047 | 68 | 265 | 12.0 | 20.0 | 0.00 | 0.00 | 0.00 | 53 | 1008.6 |
| 20260507014550 | 69 | 256 | 13.0 | 20.0 | 0.00 | 0.00 | 0.00 | 53 | 1008.4 |
| 20260507013045 | 69 | 271 | 11.0 | 17.0 | 0.00 | 0.00 | 0.00 | 54 | 1008.4 |
| 20260507011542 | 70 | 264 | 9.0 | 17.0 | 0.00 | 0.00 | 0.00 | 55 | 1008.4 |
| 20260507010043 | 71 | 288 | 12.0 | 18.0 | 0.00 | 0.00 | 0.00 | 51 | 1008.4 |
| 20260507004540 | 71 | 232 | 13.0 | 19.0 | 0.00 | 0.00 | 0.00 | 53 | 1008.4 |
| 20260507003043 | 71 | 246 | 11.0 | 16.0 | 0.00 | 0.00 | 0.00 | 55 | 1008.2 |
| 20260507001541 | 72 | 262 | 10.0 | 16.0 | 0.00 | 0.00 | 0.00 | 54 | 1008.1 |
| 20260507000041 | 72 | 279 | 12.0 | 19.0 | 0.00 | 0.00 | 0.00 | 52 | 1008.1 |
| 20260506234538 | 72 | 286 | 13.0 | 19.0 | 0.00 | 0.00 | 0.00 | 52 | 1008.2 |
| 20260506233042 | 72 | 277 | 12.0 | 21.0 | 0.00 | 0.00 | 0.00 | 53 | 1008.1 |
| 20260506231536 | 72 | 288 | 11.0 | 19.0 | 0.00 | 0.00 | 0.00 | 51 | 1008.0 |
| 20260506230036 | 73 | 248 | 12.0 | 20.0 | 0.00 | 0.00 | 0.00 | 51 | 1008.1 |
| 20260506224536 | 73 | 246 | 12.0 | 19.0 | 0.00 | 0.00 | 0.00 | 49 | 1008.3 |
| 20260506223036 | 74 | 250 | 11.0 | 19.0 | 0.00 | 0.00 | 0.00 | 53 | 1008.5 |
| 20260506221534 | 74 | 238 | 8.0 | 16.0 | 0.00 | 0.00 | 0.00 | 53 | 1008.5 |
| 20260506220036 | 74 | 208 | 11.0 | 17.0 | 0.00 | 0.00 | 0.00 | 53 | 1008.7 |
| 20260506214532 | 74 | 269 | 11.0 | 19.0 | 0.00 | 0.00 | 0.00 | 51 | 1009.0 |
| 20260506213032 | 76 | 248 | 9.0 | 18.0 | 0.00 | 0.00 | 0.00 | 48 | 1009.0 |
| 20260506211533 | 75 | 291 | 12.0 | 18.0 | 0.00 | 0.00 | 0.00 | 48 | 1009.2 |
| 20260506210032 | 76 | 261 | 12.0 | 21.0 | 0.00 | 0.00 | 0.00 | 48 | 1009.1 |
| 20260506204531 | 76 | 317 | 13.0 | 18.0 | 0.00 | 0.00 | 0.00 | 49 | 1009.1 |
| 20260506203027 | 76 | 259 | 9.0 | 18.0 | 0.00 | 0.00 | 0.00 | 51 | 1009.1 |
| 20260506201525 | 76 | 244 | 10.0 | 16.0 | 0.00 | 0.00 | 0.00 | 50 | 1009.2 |
| 20260506200022 | 75 | 243 | 8.0 | 15.0 | 0.00 | 0.00 | 0.00 | 52 | 1009.2 |
| 20260506194519 | 74 | 242 | 8.0 | 17.0 | 0.00 | 0.00 | 0.00 | 55 | 1009.3 |
| 20260506193014 | 73 | 225 | 10.0 | 15.0 | 0.00 | 0.00 | 0.00 | 61 | 1009.6 |
| 20260506191512 | 72 | 275 | 10.0 | 15.0 | 0.00 | 0.00 | 0.00 | 57 | 1009.6 |
| 20260506190009 | 71 | 240 | 11.0 | 18.0 | 0.00 | 0.00 | 0.00 | 60 | 1009.9 |
| 20260506184506 | 70 | 229 | 9.0 | 17.0 | 0.00 | 0.00 | 0.00 | 61 | 1009.9 |
| 20260506183002 | 69 | 236 | 10.0 | 17.0 | 0.00 | 0.00 | 0.00 | 63 | 1010.1 |
| 20260506181600 | 69 | 216 | 11.0 | 16.0 | 0.00 | 0.00 | 0.00 | 64 | 1010.4 |
| 20260506180106 | 68 | 252 | 10.0 | 16.0 | 0.00 | 0.00 | 0.00 | 63 | 1010.6 |
| 20260506174557 | 68 | 301 | 9.0 | 16.0 | 0.00 | 0.00 | 0.00 | 66 | 1010.7 |
| 20260506173058 | 67 | 246 | 10.0 | 17.0 | 0.00 | 0.00 | 0.00 | 66 | 1010.6 |
| 20260506171556 | 66 | 258 | 10.0 | 16.0 | 0.00 | 0.00 | 0.00 | 69 | 1010.7 |
| 20260506164545 | 64 | 245 | 9.0 | 15.0 | 0.00 | 0.00 | 0.00 | 72 | 1010.6 |
| 20260506163101 | 63 | 231 | 9.0 | 15.0 | 0.00 | 0.00 | 0.00 | 72 | 1010.7 |
| 20260506161538 | 62 | 251 | 10.0 | 18.0 | 0.00 | 0.00 | 0.00 | 73 | 1010.7 |
| 20260506160036 | 62 | 251 | 10.0 | 16.0 | 0.00 | 0.00 | 0.00 | 74 | 1010.8 |
| 20260506154536 | 61 | 226 | 11.0 | 18.0 | 0.00 | 0.00 | 0.00 | 74 | 1010.8 |